Weather History for Spirit of St Louis, MO

Change the Weather History Date:

Thursday, December 19, 2013

  Actual Average Record
Temperature  
Mean Temperature 52 °F -  
Max Temperature 59 °F 39 °F 66 °F (1997)
Min Temperature 45 °F 20 °F -2 °F (2000)
Degree Days  
Heating Degree Days 13    
Growing Degree Days 2 (Base 50)    
Moisture  
Dew Point 43 °F    
Average Humidity 68    
Maximum Humidity 75    
Minimum Humidity 62    
Precipitation  
Precipitation 0.00 in - - ()
Sea Level Pressure  
Sea Level Pressure 29.86 in    
Wind  
Wind Speed 8 mph (SSW)    
Max Wind Speed 15 mph    
Max Gust Speed 25 mph    
Visibility 10 miles    
Events      
Averages and records for this station are not official NWS values.
T = Trace of Precipitation, MM = Missing Value Source: NWS Daily Summary

Daily Weather History Graph

Daily Weather History Graph

Search for Another Location

Airport:

Trip Planner

Search our weather history database for the weather conditions in past years. The results will help you decide how hot, cold, wet, or windy it might be!

Date:

Astronomy

Dec. 19, 2013 Rise Set
Actual Time 7:15 AM CST 4:43 PM CST
Civil Twilight 6:46 AM CST 5:13 PM CST
Nautical Twilight 6:12 AM CST 5:47 PM CST
Astronomical Twilight 5:40 AM CST 6:19 PM CST
Moon 7:08 PM CST (12/19) 8:36 AM CST (12/19)
Length of Visible Light 10h 27m
Length of Day
9h 27m
Waning Gibbous, 95% of the Moon is Illuminated
Dec 19
Waning Gibbous
Dec 25
Last Quarter
Jan 1
New
Jan 7
First Quarter
Jan 15
Full

Hourly Weather History & Observations

Time (CST) Temp. Windchill Dew Point Humidity Pressure Visibility Wind Dir Wind Speed Gust Speed Precip Events Conditions
12:54 AM 46.9 °F - 36.0 °F 66% 29.93 in 10.0 mi SSW 8.1 mph - N/A   Clear
1:54 AM 46.9 °F - 36.0 °F 66% 29.93 in 10.0 mi SSW 6.9 mph - N/A   Clear
2:54 AM 45.0 °F 42.6 °F 36.0 °F 71% 29.94 in 10.0 mi South 4.6 mph - N/A   Clear
3:54 AM 46.0 °F 42.5 °F 37.0 °F 71% 29.92 in 10.0 mi South 6.9 mph - N/A   Clear
4:54 AM 46.0 °F 42.5 °F 37.9 °F 73% 29.91 in 10.0 mi South 6.9 mph - N/A   Clear
5:54 AM 46.9 °F - 37.9 °F 71% 29.90 in 10.0 mi SSW 8.1 mph - N/A   Clear
6:54 AM 46.9 °F - 37.9 °F 71% 29.91 in 10.0 mi SSW 11.5 mph - N/A   Clear
7:54 AM 48.0 °F - 39.0 °F 71% 29.91 in 10.0 mi SSW 9.2 mph - N/A   Overcast
8:54 AM 48.9 °F - 39.0 °F 69% 29.91 in 10.0 mi SSW 9.2 mph - N/A   Overcast
9:54 AM 52.0 °F - 41.0 °F 66% 29.91 in 10.0 mi SSW 9.2 mph - N/A   Overcast
10:54 AM 55.0 °F - 43.0 °F 64% 29.91 in 10.0 mi SSW 8.1 mph - N/A   Overcast
11:54 AM 57.9 °F - 45.0 °F 62% 29.89 in 10.0 mi SSW 15.0 mph 25.3 mph N/A   Mostly Cloudy
12:54 PM 59.0 °F - 46.0 °F 62% 29.87 in 10.0 mi SW 5.8 mph - N/A   Overcast
1:54 PM 59.0 °F - 46.0 °F 62% 29.84 in 10.0 mi SSW 9.2 mph 18.4 mph N/A   Overcast
2:54 PM 59.0 °F - 46.0 °F 62% 29.83 in 10.0 mi SSW 8.1 mph 16.1 mph N/A   Overcast
3:54 PM 57.9 °F - 45.0 °F 62% 29.82 in 10.0 mi South 6.9 mph - N/A   Overcast
4:54 PM 57.0 °F - 46.0 °F 67% 29.82 in 10.0 mi SSE 9.2 mph - N/A   Overcast
5:54 PM 55.9 °F - 45.0 °F 67% 29.81 in 10.0 mi SSE 4.6 mph - N/A   Overcast
6:54 PM 55.0 °F - 45.0 °F 69% 29.82 in 10.0 mi South 8.1 mph 16.1 mph N/A   Overcast
7:54 PM 54.0 °F - 46.0 °F 75% 29.81 in 10.0 mi SSE 5.8 mph - N/A   Overcast
8:54 PM 55.0 °F - 46.0 °F 72% 29.81 in 10.0 mi South 6.9 mph - N/A   Overcast
9:54 PM 55.0 °F - 46.9 °F 74% 29.80 in 10.0 mi Variable 6.9 mph - N/A   Overcast
10:54 PM 57.0 °F - 48.0 °F 72% 29.78 in 10.0 mi Variable 5.8 mph 18.4 mph N/A   Overcast
11:54 PM 57.0 °F - 48.9 °F 74% 29.77 in 10.0 mi South 6.9 mph - N/A   Overcast